Illinois River (Oklahoma), Gore (07198000)

StateOklahomaLatestHigh (2460 cfs)
RiverIllinois RiverRatingObservedEstimated
Updated2026-05-10 8:30 (52 minutes ago)Flood - The river is flooding. Obstacles can be treacherous or deadly. The river should be avoided at this stage for casual trips and definitely for the inexperienced. Trips should be attempted only with protective gear and equipment.Flood(none)7838
Discharge2460 cfs (median: 1840 cfs)High - The river is high and potentially dangerous, especially for the young and / or inexperienced. Normal stream obstacles are sometimes difficult to navigate. Extended distances can be attempted, but canoe travel may not be advisable.High(none)1752
Height10 feetGood - Conditions are ideal for a canoe or kayak. Boats typically will drag on fewer than one-quarter of riffles, if at all, and portages are unnecessary or rare. Normal float lengths can be attempted without a problem.Good(none)1208
TrendSteady (falling over 24 hours)Low - River is low but can still be floated. Some riffles are okay but most come with significant dragging and might need a portage. Float lengths should be reduced to accommodate low flow, dragging, and portages.Low(none)956
USGSExternal icon USGS Site (External icon Duck Duck Go Maps)Poor - River is too low to float comfortably. Most or all riffles will drag or must be portaged and some obstacles (such as slick shelf rock) cause undue problems. Avoid the river at this stage for casual paddling trips.Poor(none)101

Trending Data

Plot Image

Trips for Illinois River (Oklahoma), Gore (07198000)

DateStartEndDistanceConditionDischargeHeightFishingDetails

A total of 0 rows are displayed.

Condition Descriptions

Fishing Conditions

Fish Species

Notes

Classic Trip List

The classic River Trips application is still available for use. It is updated with the new system using a data retrofit. It is no longer maintained. The original River Trips application is no longer updated (as of 1 Dec 2016) but can be checked for errors or for the condition of the data before it was converted to the new system.

Gauge Data Table

ObservationHeightDischargeMaximum
Discharge
Minimum
Discharge
Mean
Discharge
P05P10P20P25P50
(Median)
P75P80P90P95
2026-05-10 08:30 1 2460 14700 (2022) 25 (1992) 3300 44 122 727 871 1840 3950 5460 10700 13400
2026-05-10 07:30 1 2460 14700 (2022) 25 (1992) 3300 44 122 727 871 1840 3950 5460 10700 13400
2026-05-10 06:30 1 2460 14700 (2022) 25 (1992) 3300 44 122 727 871 1840 3950 5460 10700 13400
2026-05-10 05:30 9.99 2450 14700 (2022) 25 (1992) 3300 44 122 727 871 1840 3950 5460 10700 13400
2026-05-10 04:30 10.01 2470 14700 (2022) 25 (1992) 3300 44 122 727 871 1840 3950 5460 10700 13400
2026-05-10 03:30 10.04 2500 14700 (2022) 25 (1992) 3300 44 122 727 871 1840 3950 5460 10700 13400
2026-05-10 02:30 10.13 2600 14700 (2022) 25 (1992) 3300 44 122 727 871 1840 3950 5460 10700 13400
2026-05-10 01:30 10.23 2720 14700 (2022) 25 (1992) 3300 44 122 727 871 1840 3950 5460 10700 13400
2026-05-10 00:30 11.11 3750 14700 (2022) 25 (1992) 3300 44 122 727 871 1840 3950 5460 10700 13400
2026-05-09 23:30 11.31 4000 14700 (2022) 25 (1992) 3300 44 122 727 871 1840 3950 5460 10700 13400
2026-05-09 22:30 11.31 4000 14700 (2022) 14 (2001) 3100 46 79 165 552 1540 3730 5150 10300 13700
2026-05-09 21:30 11.32 4010 14700 (2022) 14 (2001) 3100 46 79 165 552 1540 3730 5150 10300 13700
2026-05-09 20:30 11.33 4020 14700 (2022) 14 (2001) 3100 46 79 165 552 1540 3730 5150 10300 13700
2026-05-09 19:30 11.33 4020 14700 (2022) 14 (2001) 3100 46 79 165 552 1540 3730 5150 10300 13700
2026-05-09 18:30 11.32 4010 14700 (2022) 14 (2001) 3100 46 79 165 552 1540 3730 5150 10300 13700
2026-05-09 17:30 11.31 4000 14700 (2022) 14 (2001) 3100 46 79 165 552 1540 3730 5150 10300 13700
2026-05-09 16:30 11.33 4020 14700 (2022) 14 (2001) 3100 46 79 165 552 1540 3730 5150 10300 13700
2026-05-09 15:30 11.33 4020 14700 (2022) 14 (2001) 3100 46 79 165 552 1540 3730 5150 10300 13700
2026-05-09 14:30 11.33 4020 14700 (2022) 14 (2001) 3100 46 79 165 552 1540 3730 5150 10300 13700
2026-05-09 13:30 11.33 4020 14700 (2022) 14 (2001) 3100 46 79 165 552 1540 3730 5150 10300 13700
2026-05-09 12:30 11.33 4020 14700 (2022) 14 (2001) 3100 46 79 165 552 1540 3730 5150 10300 13700
2026-05-09 11:30 11.32 4010 14700 (2022) 14 (2001) 3100 46 79 165 552 1540 3730 5150 10300 13700
2026-05-09 10:30 11.32 4010 14700 (2022) 14 (2001) 3100 46 79 165 552 1540 3730 5150 10300 13700
2026-05-09 09:30 11.32 4010 14700 (2022) 14 (2001) 3100 46 79 165 552 1540 3730 5150 10300 13700
2026-05-09 08:30 11.32 4010 14700 (2022) 14 (2001) 3100 46 79 165 552 1540 3730 5150 10300 13700
2026-05-09 07:30 11.33 4020 14700 (2022) 14 (2001) 3100 46 79 165 552 1540 3730 5150 10300 13700
2026-05-09 06:30 11.33 4020 14700 (2022) 14 (2001) 3100 46 79 165 552 1540 3730 5150 10300 13700
2026-05-09 05:30 11.33 4020 14700 (2022) 14 (2001) 3100 46 79 165 552 1540 3730 5150 10300 13700
2026-05-09 04:30 11.34 4040 14700 (2022) 14 (2001) 3100 46 79 165 552 1540 3730 5150 10300 13700
2026-05-09 03:30 11.35 4050 14700 (2022) 14 (2001) 3100 46 79 165 552 1540 3730 5150 10300 13700
2026-05-09 02:30 11.34 4040 14700 (2022) 14 (2001) 3100 46 79 165 552 1540 3730 5150 10300 13700
2026-05-09 01:30 11.35 4050 14700 (2022) 14 (2001) 3100 46 79 165 552 1540 3730 5150 10300 13700
2026-05-09 00:30 11.35 4050 14700 (2022) 14 (2001) 3100 46 79 165 552 1540 3730 5150 10300 13700
2026-05-08 23:30 11.35 4050 14700 (2022) 14 (2001) 3100 46 79 165 552 1540 3730 5150 10300 13700
2026-05-08 22:30 11.36 4060 14200 (2022) 38 (2005) 3250 56 82 245 392 1790 3920 5190 11000 13600
2026-05-08 21:30 11.36 4060 14200 (2022) 38 (2005) 3250 56 82 245 392 1790 3920 5190 11000 13600
2026-05-08 20:30 11.36 4060 14200 (2022) 38 (2005) 3250 56 82 245 392 1790 3920 5190 11000 13600
2026-05-08 19:30 11.36 4060 14200 (2022) 38 (2005) 3250 56 82 245 392 1790 3920 5190 11000 13600
2026-05-08 18:30 11.35 4050 14200 (2022) 38 (2005) 3250 56 82 245 392 1790 3920 5190 11000 13600
2026-05-08 17:30 11.35 4050 14200 (2022) 38 (2005) 3250 56 82 245 392 1790 3920 5190 11000 13600
2026-05-08 16:30 11.35 4050 14200 (2022) 38 (2005) 3250 56 82 245 392 1790 3920 5190 11000 13600
2026-05-08 15:30 11.35 4050 14200 (2022) 38 (2005) 3250 56 82 245 392 1790 3920 5190 11000 13600
2026-05-08 14:30 11.36 4060 14200 (2022) 38 (2005) 3250 56 82 245 392 1790 3920 5190 11000 13600
2026-05-08 13:30 11.36 4060 14200 (2022) 38 (2005) 3250 56 82 245 392 1790 3920 5190 11000 13600
2026-05-08 12:30 11.36 4060 14200 (2022) 38 (2005) 3250 56 82 245 392 1790 3920 5190 11000 13600
2026-05-08 11:30 11.34 4040 14200 (2022) 38 (2005) 3250 56 82 245 392 1790 3920 5190 11000 13600
2026-05-08 10:30 11.33 4020 14200 (2022) 38 (2005) 3250 56 82 245 392 1790 3920 5190 11000 13600
2026-05-08 09:30 11.33 4020 14200 (2022) 38 (2005) 3250 56 82 245 392 1790 3920 5190 11000 13600
2026-05-08 08:30 11.32 4010 14200 (2022) 38 (2005) 3250 56 82 245 392 1790 3920 5190 11000 13600
2026-05-08 07:30 11.33 4020 14200 (2022) 38 (2005) 3250 56 82 245 392 1790 3920 5190 11000 13600
2026-05-08 06:30 11.34 4040 14200 (2022) 38 (2005) 3250 56 82 245 392 1790 3920 5190 11000 13600
2026-05-08 05:30 11.34 4040 14200 (2022) 38 (2005) 3250 56 82 245 392 1790 3920 5190 11000 13600
2026-05-08 04:30 11.33 4020 14200 (2022) 38 (2005) 3250 56 82 245 392 1790 3920 5190 11000 13600
2026-05-08 03:30 11.32 4010 14200 (2022) 38 (2005) 3250 56 82 245 392 1790 3920 5190 11000 13600
2026-05-08 02:30 11.33 4020 14200 (2022) 38 (2005) 3250 56 82 245 392 1790 3920 5190 11000 13600
2026-05-08 01:30 11.32 4010 14200 (2022) 38 (2005) 3250 56 82 245 392 1790 3920 5190 11000 13600
2026-05-08 00:30 11.33 4020 14200 (2022) 38 (2005) 3250 56 82 245 392 1790 3920 5190 11000 13600
2026-05-07 23:30 11.34 4040 14200 (2022) 38 (2005) 3250 56 82 245 392 1790 3920 5190 11000 13600
2026-05-07 22:30 11.34 4040 15400 (1957) 42 (2005) 3410 56 74 275 453 1710 3970 5220 11400 13600
2026-05-07 21:30 11.33 4020 15400 (1957) 42 (2005) 3410 56 74 275 453 1710 3970 5220 11400 13600
2026-05-07 20:30 11.34 4040 15400 (1957) 42 (2005) 3410 56 74 275 453 1710 3970 5220 11400 13600
2026-05-07 19:30 11.35 4050 15400 (1957) 42 (2005) 3410 56 74 275 453 1710 3970 5220 11400 13600
2026-05-07 18:30 11.35 4050 15400 (1957) 42 (2005) 3410 56 74 275 453 1710 3970 5220 11400 13600
2026-05-07 17:30 11.34 4040 15400 (1957) 42 (2005) 3410 56 74 275 453 1710 3970 5220 11400 13600
2026-05-07 16:30 11.36 4060 15400 (1957) 42 (2005) 3410 56 74 275 453 1710 3970 5220 11400 13600
2026-05-07 15:30 11.38 4090 15400 (1957) 42 (2005) 3410 56 74 275 453 1710 3970 5220 11400 13600
2026-05-07 14:30 11.42 4140 15400 (1957) 42 (2005) 3410 56 74 275 453 1710 3970 5220 11400 13600
2026-05-07 13:30 11.43 4150 15400 (1957) 42 (2005) 3410 56 74 275 453 1710 3970 5220 11400 13600
2026-05-07 12:30 11.49 4230 15400 (1957) 42 (2005) 3410 56 74 275 453 1710 3970 5220 11400 13600
2026-05-07 11:30 11.73 4560 15400 (1957) 42 (2005) 3410 56 74 275 453 1710 3970 5220 11400 13600
2026-05-07 10:30 12.58 5830 15400 (1957) 42 (2005) 3410 56 74 275 453 1710 3970 5220 11400 13600
2026-05-07 09:30 12.70 6030 15400 (1957) 42 (2005) 3410 56 74 275 453 1710 3970 5220 11400 13600
2026-05-07 08:30 12.70 6030 15400 (1957) 42 (2005) 3410 56 74 275 453 1710 3970 5220 11400 13600
2026-05-07 07:30 12.70 6030 15400 (1957) 42 (2005) 3410 56 74 275 453 1710 3970 5220 11400 13600
2026-05-07 06:30 12.71 6040 15400 (1957) 42 (2005) 3410 56 74 275 453 1710 3970 5220 11400 13600
2026-05-07 05:30 12.71 6040 15400 (1957) 42 (2005) 3410 56 74 275 453 1710 3970 5220 11400 13600
2026-05-07 04:30 12.70 6030 15400 (1957) 42 (2005) 3410 56 74 275 453 1710 3970 5220 11400 13600
2026-05-07 03:30 12.71 6040 15400 (1957) 42 (2005) 3410 56 74 275 453 1710 3970 5220 11400 13600
2026-05-07 02:30 12.70 6030 15400 (1957) 42 (2005) 3410 56 74 275 453 1710 3970 5220 11400 13600
2026-05-07 01:30 12.70 6030 15400 (1957) 42 (2005) 3410 56 74 275 453 1710 3970 5220 11400 13600
2026-05-07 00:30 12.71 6040 15400 (1957) 42 (2005) 3410 56 74 275 453 1710 3970 5220 11400 13600
2026-05-06 23:30 12.71 6040 15400 (1957) 42 (2005) 3410 56 74 275 453 1710 3970 5220 11400 13600
2026-05-06 22:30 12.71 6040 15800 (1957) 53 (1999) 3530 66 115 455 791 1940 4400 5350 11100 13700
2026-05-06 21:30 12.71 6040 15800 (1957) 53 (1999) 3530 66 115 455 791 1940 4400 5350 11100 13700
2026-05-06 20:30 12.72 6060 15800 (1957) 53 (1999) 3530 66 115 455 791 1940 4400 5350 11100 13700
2026-05-06 19:30 12.71 6040 15800 (1957) 53 (1999) 3530 66 115 455 791 1940 4400 5350 11100 13700
2026-05-06 18:30 12.71 6040 15800 (1957) 53 (1999) 3530 66 115 455 791 1940 4400 5350 11100 13700
2026-05-06 17:30 12.70 6030 15800 (1957) 53 (1999) 3530 66 115 455 791 1940 4400 5350 11100 13700
2026-05-06 16:30 12.70 6030 15800 (1957) 53 (1999) 3530 66 115 455 791 1940 4400 5350 11100 13700
2026-05-06 15:30 12.71 6040 15800 (1957) 53 (1999) 3530 66 115 455 791 1940 4400 5350 11100 13700
2026-05-06 14:30 12.71 6040 15800 (1957) 53 (1999) 3530 66 115 455 791 1940 4400 5350 11100 13700
2026-05-06 13:30 12.71 6040 15800 (1957) 53 (1999) 3530 66 115 455 791 1940 4400 5350 11100 13700
2026-05-06 12:30 12.71 6040 15800 (1957) 53 (1999) 3530 66 115 455 791 1940 4400 5350 11100 13700
2026-05-06 11:30 12.72 6060 15800 (1957) 53 (1999) 3530 66 115 455 791 1940 4400 5350 11100 13700
2026-05-06 10:30 12.71 6040 15800 (1957) 53 (1999) 3530 66 115 455 791 1940 4400 5350 11100 13700
2026-05-06 09:30 12.72 6060 15800 (1957) 53 (1999) 3530 66 115 455 791 1940 4400 5350 11100 13700
2026-05-06 08:30 12.72 6060 15800 (1957) 53 (1999) 3530 66 115 455 791 1940 4400 5350 11100 13700
2026-05-06 07:30 12.72 6060 15800 (1957) 53 (1999) 3530 66 115 455 791 1940 4400 5350 11100 13700
2026-05-06 06:30 12.72 6060 15800 (1957) 53 (1999) 3530 66 115 455 791 1940 4400 5350 11100 13700
2026-05-06 05:30 12.72 6060 15800 (1957) 53 (1999) 3530 66 115 455 791 1940 4400 5350 11100 13700
2026-05-06 04:30 12.72 6060 15800 (1957) 53 (1999) 3530 66 115 455 791 1940 4400 5350 11100 13700
2026-05-06 03:30 12.71 6040 15800 (1957) 53 (1999) 3530 66 115 455 791 1940 4400 5350 11100 13700
2026-05-06 02:30 12.73 6070 15800 (1957) 53 (1999) 3530 66 115 455 791 1940 4400 5350 11100 13700
2026-05-06 01:30 12.73 6070 15800 (1957) 53 (1999) 3530 66 115 455 791 1940 4400 5350 11100 13700
2026-05-06 00:30 12.73 6070 15800 (1957) 53 (1999) 3530 66 115 455 791 1940 4400 5350 11100 13700
2026-05-05 23:30 12.73 6070 15800 (1957) 53 (1999) 3530 66 115 455 791 1940 4400 5350 11100 13700
2026-05-05 22:30 12.72 6060 14100 (2017) 17 (2001) 3470 70 113 327 590 2040 4250 5240 10800 12800
2026-05-05 21:30 12.72 6060 14100 (2017) 17 (2001) 3470 70 113 327 590 2040 4250 5240 10800 12800
2026-05-05 20:30 12.72 6060 14100 (2017) 17 (2001) 3470 70 113 327 590 2040 4250 5240 10800 12800
2026-05-05 19:30 12.73 6070 14100 (2017) 17 (2001) 3470 70 113 327 590 2040 4250 5240 10800 12800
2026-05-05 18:30 12.73 6070 14100 (2017) 17 (2001) 3470 70 113 327 590 2040 4250 5240 10800 12800
2026-05-05 17:30 12.72 6060 14100 (2017) 17 (2001) 3470 70 113 327 590 2040 4250 5240 10800 12800
2026-05-05 16:30 12.72 6060 14100 (2017) 17 (2001) 3470 70 113 327 590 2040 4250 5240 10800 12800
2026-05-05 15:30 12.73 6070 14100 (2017) 17 (2001) 3470 70 113 327 590 2040 4250 5240 10800 12800
2026-05-05 14:30 12.73 6070 14100 (2017) 17 (2001) 3470 70 113 327 590 2040 4250 5240 10800 12800
2026-05-05 13:30 12.72 6060 14100 (2017) 17 (2001) 3470 70 113 327 590 2040 4250 5240 10800 12800
2026-05-05 12:30 12.73 6070 14100 (2017) 17 (2001) 3470 70 113 327 590 2040 4250 5240 10800 12800
2026-05-05 11:30 12.73 6070 14100 (2017) 17 (2001) 3470 70 113 327 590 2040 4250 5240 10800 12800
2026-05-05 10:30 12.72 6060 14100 (2017) 17 (2001) 3470 70 113 327 590 2040 4250 5240 10800 12800
2026-05-05 09:30 12.72 6060 14100 (2017) 17 (2001) 3470 70 113 327 590 2040 4250 5240 10800 12800
2026-05-05 08:30 12.72 6060 14100 (2017) 17 (2001) 3470 70 113 327 590 2040 4250 5240 10800 12800
2026-05-05 07:30 12.70 6030 14100 (2017) 17 (2001) 3470 70 113 327 590 2040 4250 5240 10800 12800
2026-05-05 06:30 12.66 5960 14100 (2017) 17 (2001) 3470 70 113 327 590 2040 4250 5240 10800 12800
2026-05-05 05:30 12.54 5770 14100 (2017) 17 (2001) 3470 70 113 327 590 2040 4250 5240 10800 12800
2026-05-05 04:30 12.47 5660 14100 (2017) 17 (2001) 3470 70 113 327 590 2040 4250 5240 10800 12800
2026-05-05 03:30 12.47 5660 14100 (2017) 17 (2001) 3470 70 113 327 590 2040 4250 5240 10800 12800
2026-05-05 02:30 12.48 5680 14100 (2017) 17 (2001) 3470 70 113 327 590 2040 4250 5240 10800 12800
2026-05-05 01:30 12.50 5710 14100 (2017) 17 (2001) 3470 70 113 327 590 2040 4250 5240 10800 12800
2026-05-05 00:30 12.61 5880 14100 (2017) 17 (2001) 3470 70 113 327 590 2040 4250 5240 10800 12800
2026-05-04 23:30 12.68 5990 14100 (2017) 17 (2001) 3470 70 113 327 590 2040 4250 5240 10800 12800
2026-05-04 22:30 12.67 5980 13900 (2017) 46 (1997) 3180 55 67 525 747 2050 3970 4730 9980 11700
2026-05-04 21:30 12.67 5980 13900 (2017) 46 (1997) 3180 55 67 525 747 2050 3970 4730 9980 11700
2026-05-04 20:30 12.68 5990 13900 (2017) 46 (1997) 3180 55 67 525 747 2050 3970 4730 9980 11700
2026-05-04 19:30 12.68 5990 13900 (2017) 46 (1997) 3180 55 67 525 747 2050 3970 4730 9980 11700
2026-05-04 18:30 12.68 5990 13900 (2017) 46 (1997) 3180 55 67 525 747 2050 3970 4730 9980 11700
2026-05-04 17:30 12.68 5990 13900 (2017) 46 (1997) 3180 55 67 525 747 2050 3970 4730 9980 11700
2026-05-04 16:30 12.68 5990 13900 (2017) 46 (1997) 3180 55 67 525 747 2050 3970 4730 9980 11700
2026-05-04 15:30 12.67 5980 13900 (2017) 46 (1997) 3180 55 67 525 747 2050 3970 4730 9980 11700
2026-05-04 14:30 12.65 5950 13900 (2017) 46 (1997) 3180 55 67 525 747 2050 3970 4730 9980 11700
2026-05-04 13:30 12.60 5870 13900 (2017) 46 (1997) 3180 55 67 525 747 2050 3970 4730 9980 11700
2026-05-04 12:30 12.53 5750 13900 (2017) 46 (1997) 3180 55 67 525 747 2050 3970 4730 9980 11700
2026-05-04 11:30 12.20 5240 13900 (2017) 46 (1997) 3180 55 67 525 747 2050 3970 4730 9980 11700
2026-05-04 10:30 11.30 3990 13900 (2017) 46 (1997) 3180 55 67 525 747 2050 3970 4730 9980 11700
2026-05-04 09:30 11.30 3990 13900 (2017) 46 (1997) 3180 55 67 525 747 2050 3970 4730 9980 11700
2026-05-04 08:30 11.27 3950 13900 (2017) 46 (1997) 3180 55 67 525 747 2050 3970 4730 9980 11700
2026-05-04 07:30 11.25 3920 13900 (2017) 46 (1997) 3180 55 67 525 747 2050 3970 4730 9980 11700
2026-05-04 06:30 11.25 3920 13900 (2017) 46 (1997) 3180 55 67 525 747 2050 3970 4730 9980 11700
2026-05-04 05:30 11.09 3720 13900 (2017) 46 (1997) 3180 55 67 525 747 2050 3970 4730 9980 11700
2026-05-04 04:30 11.01 3630 13900 (2017) 46 (1997) 3180 55 67 525 747 2050 3970 4730 9980 11700
2026-05-04 03:30 11.01 3630 13900 (2017) 46 (1997) 3180 55 67 525 747 2050 3970 4730 9980 11700
2026-05-04 02:30 11.00 3610 13900 (2017) 46 (1997) 3180 55 67 525 747 2050 3970 4730 9980 11700
2026-05-04 01:30 11.03 3650 13900 (2017) 46 (1997) 3180 55 67 525 747 2050 3970 4730 9980 11700
2026-05-04 00:30 11.18 3830 13900 (2017) 46 (1997) 3180 55 67 525 747 2050 3970 4730 9980 11700
2026-05-03 23:30 11.23 3900 13900 (2017) 46 (1997) 3180 55 67 525 747 2050 3970 4730 9980 11700
2026-05-03 22:30 11.24 3910 13700 (2011) 24 (1992) 3030 46 58 227 477 2000 3710 4490 9480 11200
2026-05-03 21:30 11.23 3900 13700 (2011) 24 (1992) 3030 46 58 227 477 2000 3710 4490 9480 11200
2026-05-03 20:30 11.24 3910 13700 (2011) 24 (1992) 3030 46 58 227 477 2000 3710 4490 9480 11200
2026-05-03 19:30 11.24 3910 13700 (2011) 24 (1992) 3030 46 58 227 477 2000 3710 4490 9480 11200
2026-05-03 18:30 11.25 3920 13700 (2011) 24 (1992) 3030 46 58 227 477 2000 3710 4490 9480 11200
2026-05-03 17:30 11.23 3900 13700 (2011) 24 (1992) 3030 46 58 227 477 2000 3710 4490 9480 11200
2026-05-03 16:30 11.22 3890 13700 (2011) 24 (1992) 3030 46 58 227 477 2000 3710 4490 9480 11200
2026-05-03 15:30 11.05 3670 13700 (2011) 24 (1992) 3030 46 58 227 477 2000 3710 4490 9480 11200
2026-05-03 14:30 10.11 2580 13700 (2011) 24 (1992) 3030 46 58 227 477 2000 3710 4490 9480 11200
2026-05-03 13:30 10.99 3600 13700 (2011) 24 (1992) 3030 46 58 227 477 2000 3710 4490 9480 11200
2026-05-03 12:30 11.26 3940 13700 (2011) 24 (1992) 3030 46 58 227 477 2000 3710 4490 9480 11200
2026-05-03 11:30 11.25 3920 13700 (2011) 24 (1992) 3030 46 58 227 477 2000 3710 4490 9480 11200
2026-05-03 10:30 11.25 3920 13700 (2011) 24 (1992) 3030 46 58 227 477 2000 3710 4490 9480 11200
2026-05-03 09:30 11.25 3920 13700 (2011) 24 (1992) 3030 46 58 227 477 2000 3710 4490 9480 11200
2026-05-03 08:30 11.26 3940 13700 (2011) 24 (1992) 3030 46 58 227 477 2000 3710 4490 9480 11200
2026-05-03 07:30 11.24 3910 13700 (2011) 24 (1992) 3030 46 58 227 477 2000 3710 4490 9480 11200
2026-05-03 06:30 11.26 3940 13700 (2011) 24 (1992) 3030 46 58 227 477 2000 3710 4490 9480 11200
2026-05-03 05:30 11.27 3950 13700 (2011) 24 (1992) 3030 46 58 227 477 2000 3710 4490 9480 11200
2026-05-03 04:30 11.29 3970 13700 (2011) 24 (1992) 3030 46 58 227 477 2000 3710 4490 9480 11200
2026-05-03 03:30 11.29 3970 13700 (2011) 24 (1992) 3030 46 58 227 477 2000 3710 4490 9480 11200
2026-05-03 02:30 11.29 3970 13700 (2011) 24 (1992) 3030 46 58 227 477 2000 3710 4490 9480 11200
2026-05-03 01:30 11.28 3960 13700 (2011) 24 (1992) 3030 46 58 227 477 2000 3710 4490 9480 11200
2026-05-03 00:30 11.29 3970 13700 (2011) 24 (1992) 3030 46 58 227 477 2000 3710 4490 9480 11200
2026-05-02 23:30 11.29 3970 13700 (2011) 24 (1992) 3030 46 58 227 477 2000 3710 4490 9480 11200

A total of 178 rows are displayed for years 1954 through 2025.